Theta_e
322 312 314 310 300 298 295 299 301 302 304 307 312 312 312 313 313 305 329 335 333 335 340 342 344 344 346 346 346 347 347 347 345 343 343 343 342 341 342 341 341 340 338 338 337 338 337 336 338
315 315 311 305 295 290 292 300 301 303 308 311 312 311 312 311 321 322 325 333 332 336 339 341 341 343 344 345 346 347 346 345 344 342 342 342 342 343 342 340 340 336 337 336 336 336 335 336 337
314 313 304 301 295 291 294 302 304 307 310 309 308 313 314 314 323 323 328 332 331 333 337 339 341 343 343 345 346 345 344 343 343 342 340 341 341 342 340 338 338 336 336 336 335 336 336 336 336
310 310 305 297 293 297 297 304 307 306 309 312 311 310 316 323 325 324 332 330 328 332 336 339 343 344 344 344 344 343 342 342 341 341 341 339 339 338 340 337 337 336 335 334 335 335 335 335 334
308 305 297 296 296 296 298 306 309 307 307 307 310 309 314 324 327 327 332 329 330 331 336 338 341 341 342 343 343 343 342 342 341 340 338 338 336 336 336 335 334 334 334 333 333 334 334 332 332
303 305 295 293 296 297 298 303 308 307 308 308 311 313 315 327 324 324 331 327 330 331 335 336 334 337 340 342 342 342 342 341 340 339 337 336 336 336 335 334 335 334 333 332 332 333 332 331 330
302 302 296 295 298 298 299 302 304 307 308 308 312 312 317 323 326 325 331 327 328 331 332 334 334 334 333 337 338 340 341 340 339 339 338 337 336 336 335 336 335 333 332 331 330 330 330 329 328
304 303 299 297 298 300 301 303 304 307 306 312 311 311 312 322 327 325 331 327 326 329 330 331 331 333 332 334 333 335 337 337 337 336 333 331 331 331 331 330 334 333 332 330 328 328 327 326 325
308 298 296 300 300 301 303 301 303 307 308 308 313 313 320 328 327 322 327 327 326 326 329 329 329 330 331 331 328 330 331 331 331 329 327 325 325 325 326 327 331 333 331 329 327 326 325 324 323
302 298 300 307 305 301 304 303 304 304 304 306 318 325 327 328 325 320 322 324 325 325 324 329 328 327 330 333 329 328 328 328 328 326 325 326 325 325 325 323 325 328 327 328 326 325 325 322 317
302 299 306 307 302 305 304 302 305 303 300 307 313 321 324 323 323 321 319 325 326 327 327 327 328 327 329 330 329 328 326 326 326 326 325 326 324 323 321 318 319 318 318 318 320 317 318 317 317
297 303 304 305 303 302 300 302 304 303 304 309 319 324 323 323 324 322 321 320 326 326 327 328 326 328 327 329 329 328 327 325 325 326 326 323 322 321 321 318 317 317 317 317 316 317 317 317 317
302 303 302 303 302 300 301 299 300 301 305 304 317 324 321 323 324 323 323 322 326 326 327 326 327 326 327 326 326 327 326 326 326 325 326 325 322 321 321 320 320 320 318 317 316 317 317 317 317
305 306 307 302 300 299 298 297 298 300 302 303 319 320 321 320 322 321 322 322 324 326 326 328 326 328 328 327 326 327 326 325 325 325 325 325 323 321 321 319 319 318 318 317 317 316 315 315 316
308 304 304 299 298 297 298 295 296 300 299 300 306 316 320 320 322 323 325 324 324 325 327 328 328 328 328 328 328 326 326 326 324 324 324 324 323 322 322 320 318 318 317 317 316 315 315 314 314
302 302 296 300 299 298 298 296 302 300 299 298 300 305 314 319 322 324 326 325 324 324 326 328 329 328 327 327 327 327 326 326 324 323 323 323 323 322 321 320 320 319 317 316 315 314 313 313 313
297 293 296 298 300 297 295 294 302 305 298 297 297 300 304 313 319 323 325 326 324 325 324 327 327 327 326 327 328 327 326 325 325 323 323 322 322 322 321 321 321 320 318 317 315 314 314 313 313
292 294 297 297 299 295 292 293 301 302 299 297 296 297 301 306 314 319 323 325 326 326 326 326 327 327 327 328 328 327 325 325 326 324 324 323 323 322 320 320 320 320 318 316 316 315 317 317 317
299 297 297 300 304 297 296 295 298 300 300 297 297 297 296 303 311 315 320 322 324 325 325 325 325 326 326 326 323 324 324 325 324 325 326 325 324 322 320 319 319 318 318 317 316 315 317 316 314
299 297 297 303 301 299 294 296 299 300 302 300 299 298 299 298 306 313 316 319 321 324 326 326 325 324 325 326 326 325 324 324 326 325 325 325 324 323 321 320 319 318 316 315 315 315 312 314 315
297 298 299 300 294 291 289 291 293 297 299 301 301 302 303 301 301 311 315 317 321 322 324 325 326 326 325 326 325 323 323 321 320 322 324 325 325 324 322 320 320 319 318 316 314 313 312 311 313
293 302 301 294 292 287 292 284 290 295 297 300 302 303 302 302 301 306 314 316 319 321 324 325 326 327 327 327 325 324 323 322 324 323 325 325 326 325 324 322 322 320 318 316 316 316 315 315 313
296 301 301 295 291 287 287 282 286 291 294 297 300 302 302 303 301 301 309 315 318 321 321 324 325 327 328 328 327 326 324 325 323 322 323 324 326 326 324 323 322 321 319 318 316 313 314 316 312
303 299 294 293 290 283 288 285 285 290 294 295 298 300 302 302 302 300 302 314 317 320 320 322 323 325 327 328 328 326 325 324 322 323 323 324 326 325 325 324 322 322 320 318 317 316 315 315 314
299 293 282 282 281 281 287 286 290 294 297 297 297 296 296 298 299 300 298 307 314 314 318 319 321 323 325 326 327 327 327 325 323 323 324 324 325 325 325 323 322 322 321 320 318 316 316 315 314
295 292 283 278 278 280 282 281 286 296 302 303 297 294 293 294 296 297 298 300 309 313 317 319 320 322 323 325 326 328 327 326 326 325 326 325 326 326 327 325 324 323 321 320 319 318 317 315 315
292 290 294 283 274 277 281 284 290 294 294 292 293 294 293 294 295 295 297 297 298 306 313 317 318 320 320 322 325 326 327 327 326 326 326 326 326 326 326 325 324 322 322 321 320 319 316 315 315
296 296 288 285 274 273 278 280 285 289 292 293 292 292 293 293 294 295 294 297 297 298 301 305 311 317 315 315 319 323 325 326 327 322 323 325 325 322 322 323 323 321 321 320 319 319 313 313 312
289 291 291 290 283 278 276 281 289 291 292 291 291 293 293 293 293 294 294 295 296 296 297 298 299 300 300 303 308 314 319 318 320 323 321 320 319 324 324 324 323 322 320 319 319 319 314 314 311
295 292 293 287 282 280 281 281 290 289 291 292 291 292 291 291 293 293 294 296 297 297 298 298 298 297 297 298 301 306 310 312 314 315 316 318 322 321 321 320 320 319 318 319 319 315 312 312 308
Wind_Speed
9 10 2 4 4 5 4 2 5 6 5 2 4 10 8 4 3 4 6 15 16 12 9 10 11 12 14 14 14 14 15 16 17 17 17 16 14 16 18 19 16 16 18 18 17 17 16 15 15
6 7 5 2 5 3 6 3 6 4 5 6 8 4 6 3 3 10 8 15 15 12 9 11 13 13 13 13 13 14 15 14 15 16 16 15 14 17 20 18 16 16 17 17 17 17 15 14 15
6 3 3 3 3 3 2 3 7 5 6 4 3 6 4 2 4 5 13 16 15 11 8 10 12 14 13 12 13 14 15 14 13 13 15 15 15 17 20 18 16 16 16 16 16 16 15 14 14
4 5 4 4 3 4 4 4 5 4 5 5 5 7 4 3 9 8 15 15 14 11 7 11 13 13 13 13 13 13 14 15 12 13 13 15 15 16 15 16 14 16 15 15 15 15 14 13 13
3 2 1 2 3 3 5 6 6 4 5 1 4 3 4 3 11 15 14 13 14 10 7 8 13 12 12 13 13 12 13 16 14 13 14 14 14 15 14 14 14 14 14 14 15 14 13 12 12
3 3 1 3 5 2 1 6 7 6 4 4 6 6 2 6 12 9 14 14 12 12 7 7 10 9 9 11 11 12 13 15 14 14 14 14 13 14 13 13 14 14 13 14 14 13 12 11 11
1 2 5 4 5 4 4 4 4 6 7 3 9 6 4 5 8 9 14 14 11 9 7 6 6 7 8 9 10 10 13 13 14 14 13 12 11 11 12 10 11 13 12 13 13 12 11 9 9
1 2 4 4 5 6 6 5 2 5 4 4 3 7 6 7 10 10 12 13 11 9 7 6 6 6 6 5 10 9 11 11 11 12 12 11 11 10 10 8 9 12 11 11 11 10 9 8 7
2 2 4 5 6 4 5 4 1 1 7 4 3 4 7 14 11 8 12 9 11 8 9 7 7 6 6 6 5 8 11 11 11 10 10 9 5 6 7 7 9 11 10 9 8 8 6 4 4
4 4 7 6 6 6 8 5 8 4 5 4 5 7 13 14 9 12 14 12 11 11 8 10 8 8 8 6 5 5 6 5 5 5 6 4 5 5 6 7 9 8 8 7 5 5 3 0 2
6 6 6 3 1 6 8 5 6 8 4 8 11 12 12 7 8 12 11 14 13 11 7 10 11 10 9 8 5 3 3 3 3 7 6 4 5 5 4 3 3 4 4 2 2 1 1 3 2
7 7 4 4 2 4 8 4 5 7 7 9 16 19 13 16 14 13 14 13 14 13 10 8 8 12 9 7 7 6 5 4 4 4 6 5 3 4 4 3 4 4 3 4 3 2 2 2 2
9 7 6 3 2 4 3 4 5 6 6 4 14 16 15 17 14 7 10 9 13 14 12 9 7 8 9 10 7 6 6 5 7 5 5 5 4 4 4 4 4 4 4 4 3 3 3 2 2
3 9 13 5 4 2 4 3 3 7 7 5 18 15 14 17 17 6 9 13 15 14 15 12 8 7 10 9 8 7 6 6 5 4 5 6 5 4 4 4 4 3 4 3 3 3 3 3 2
6 7 13 6 5 4 4 6 8 8 4 9 11 13 14 15 14 18 16 13 16 14 15 15 12 8 9 8 6 5 6 6 6 6 7 7 6 6 6 5 4 4 4 5 4 3 3 2 1
4 1 4 5 5 5 8 9 6 11 9 10 10 10 13 15 20 18 16 14 13 14 18 17 14 11 9 8 6 4 5 7 5 5 5 7 7 7 6 5 4 5 4 4 3 3 3 3 3
4 5 10 7 11 6 7 7 8 9 10 10 10 10 11 13 15 17 19 18 15 17 16 17 15 16 12 8 7 6 7 5 5 5 5 7 7 7 5 5 5 5 5 4 4 4 4 3 3
8 7 9 14 7 6 6 10 11 6 5 12 10 11 10 12 19 17 19 17 15 15 15 16 15 15 14 9 9 7 5 5 5 5 6 10 8 8 6 5 5 5 4 4 3 5 4 3 3
13 15 8 10 7 7 13 13 17 10 7 8 9 9 10 14 16 16 17 15 14 13 15 17 16 16 12 11 9 9 9 7 6 6 7 9 9 9 8 5 6 5 6 7 6 3 4 2 2
11 15 17 7 6 9 6 17 13 9 10 10 13 11 12 7 9 15 15 16 17 19 18 16 16 15 13 10 9 6 6 5 7 5 5 6 9 11 9 8 7 7 5 6 6 5 3 3 4
16 13 13 9 4 3 2 12 9 10 13 11 12 14 14 14 11 15 16 19 17 18 19 17 16 15 13 11 8 2 3 2 4 5 6 9 10 11 11 10 9 8 7 7 6 7 7 5 3
19 14 16 9 6 6 8 8 5 7 14 15 20 17 14 15 10 14 17 18 17 17 16 18 16 16 15 16 13 15 10 11 9 8 7 8 11 12 13 13 12 11 8 7 7 7 6 4 5
7 13 13 4 5 3 4 1 8 7 7 12 18 17 13 14 12 14 16 18 17 15 16 18 17 15 15 16 15 13 13 10 6 5 9 10 11 11 12 13 12 11 8 9 9 6 7 7 4
5 8 6 4 3 5 8 7 7 6 8 6 7 14 17 13 11 11 10 13 16 13 13 13 16 16 14 17 18 19 18 12 8 10 10 9 9 9 12 13 12 12 9 9 10 10 9 9 7
8 2 1 1 2 7 6 10 12 9 9 9 8 10 11 10 11 10 10 10 12 12 14 12 15 16 15 17 18 18 18 16 16 13 11 11 9 9 12 13 12 10 11 11 10 10 10 10 9
20 9 4 5 4 4 2 10 8 16 21 15 7 4 6 7 8 9 10 10 13 13 15 15 15 16 15 16 17 17 17 11 12 14 11 10 10 10 12 12 13 13 11 11 10 8 8 9 8
10 11 8 4 3 2 6 7 9 13 11 5 7 8 10 8 7 7 8 9 10 11 14 15 14 15 12 17 16 15 15 16 14 14 12 10 11 9 11 12 12 12 12 12 11 9 10 9 8
14 9 6 1 2 5 6 5 8 6 13 9 8 9 9 7 7 6 6 7 6 6 5 6 8 13 9 7 8 11 13 13 14 8 11 12 10 8 9 10 10 10 11 11 11 9 6 8 6
6 12 9 6 6 5 2 8 9 11 6 9 9 8 7 7 5 5 6 5 6 5 6 7 8 7 6 7 6 7 8 8 8 10 8 7 7 9 11 10 10 11 10 9 9 8 7 10 8
14 13 19 7 8 4 3 8 3 8 7 9 8 7 5 3 3 2 5 6 6 5 3 4 5 7 7 7 7 7 6 6 7 6 7 7 8 6 7 7 7 7 7 9 11 10 8 10 10
Wind_Direction
314 307 165 37 39 59 296 273 127 87 56 51 75 92 109 66 53 156 115 120 124 126 126 122 116 115 114 106 112 110 104 100 99 98 94 94 96 96 96 89 83 78 77 75 75 75 74 73 69
316 319 34 73 81 22 284 181 112 120 124 91 56 113 50 85 47 114 106 130 125 131 129 130 125 118 116 108 118 112 105 104 103 102 100 92 84 87 90 85 78 82 78 76 76 77 75 72 61
300 220 66 96 118 218 217 87 131 100 112 94 96 62 72 85 93 121 119 130 128 128 128 135 130 122 121 112 112 120 110 108 110 108 104 101 84 86 91 87 85 82 79 76 78 79 79 74 59
330 3 4 95 252 284 110 175 125 87 31 71 107 65 55 228 142 142 127 120 115 118 115 131 130 126 126 119 110 110 113 110 104 106 108 100 92 89 86 88 90 85 82 80 83 82 79 69 57
9 60 25 285 256 216 144 149 130 109 144 162 98 123 76 29 127 122 129 112 121 121 122 123 126 132 134 130 122 116 114 112 109 107 106 100 101 95 97 97 97 91 86 84 87 86 83 71 57
336 106 68 235 257 191 120 136 148 145 156 169 86 107 113 145 127 135 125 118 125 130 128 122 125 126 116 137 128 128 124 123 122 120 117 110 106 105 102 107 106 99 91 87 91 88 81 68 57
187 121 217 219 254 181 183 145 160 156 138 167 144 98 164 151 153 133 132 124 125 127 128 128 125 123 116 125 123 118 124 128 128 125 119 114 109 101 102 93 106 103 97 93 92 93 89 75 56
233 159 221 239 222 229 177 138 181 146 185 133 112 151 181 201 161 129 133 129 129 133 136 147 140 131 124 121 126 123 130 127 123 122 123 122 120 112 102 93 101 107 104 98 96 99 101 96 76
299 288 219 228 200 213 170 142 278 147 121 71 40 139 173 152 144 123 132 134 136 148 152 154 156 152 139 129 128 123 126 130 135 136 142 138 136 126 110 113 102 112 111 109 108 103 96 82 60
227 209 229 233 210 179 178 169 165 132 132 82 65 53 131 140 146 151 154 158 156 160 165 166 170 164 154 149 150 143 140 150 149 153 161 142 145 141 128 126 119 115 122 132 138 130 120 156 316
265 244 258 292 177 130 160 147 182 137 216 191 174 157 154 160 164 164 170 163 171 170 160 178 172 171 166 154 165 163 166 164 173 176 174 167 146 142 139 127 131 141 145 158 137 58 93 137 135
308 254 258 263 142 109 158 147 176 178 215 200 169 163 159 176 183 181 175 168 171 178 175 178 180 173 172 162 173 174 173 177 180 200 173 152 165 149 152 162 168 173 174 194 185 171 144 101 126
268 279 326 334 200 134 125 168 186 239 220 105 150 157 171 181 189 188 174 172 170 178 187 184 185 179 169 167 177 182 185 180 180 175 181 164 156 164 164 185 175 184 173 177 160 167 165 185 199
279 318 304 252 259 284 147 243 161 252 210 138 153 171 174 181 191 184 191 178 176 179 185 195 183 190 174 173 177 183 185 176 173 178 179 174 165 178 171 164 178 175 180 175 176 176 182 201 200
275 342 319 226 210 244 148 287 222 231 147 197 186 180 179 190 179 201 204 190 184 183 182 190 197 189 192 171 179 179 181 180 181 178 179 179 180 185 168 170 174 191 183 169 151 171 178 224 233
203 107 234 246 209 240 147 252 231 217 202 222 197 190 187 189 192 199 202 205 192 184 184 186 196 191 191 190 183 193 186 181 188 177 178 184 182 185 171 169 187 186 171 165 170 177 212 229 220
228 204 202 262 206 163 174 257 241 223 192 224 202 209 200 197 198 200 201 200 188 188 181 186 188 191 186 192 205 201 197 182 179 171 177 185 188 186 176 180 188 177 172 181 181 192 182 196 231
194 206 204 210 215 165 188 254 271 271 198 216 213 210 214 205 207 198 199 199 192 187 184 181 185 188 187 183 199 212 198 191 172 173 185 185 191 188 178 185 190 175 174 190 199 202 186 178 196
191 205 213 216 239 179 212 227 243 251 268 241 226 228 214 215 214 190 191 185 185 183 183 184 182 187 183 191 190 200 206 200 195 191 194 192 189 189 185 185 189 183 187 196 185 182 180 203 177
259 200 213 234 198 181 215 246 246 222 230 222 222 223 225 207 200 198 185 180 185 190 189 187 188 183 188 189 197 201 179 196 198 194 198 201 192 190 192 191 189 188 184 184 192 175 162 207 191
245 244 207 207 189 308 48 275 232 233 221 227 223 223 224 217 194 201 194 194 191 191 191 192 188 185 186 184 187 162 123 108 162 195 214 217 198 196 193 193 194 195 190 197 192 186 180 190 203
239 236 251 150 163 210 160 275 271 227 231 222 227 219 217 216 206 197 201 199 196 196 186 191 190 189 190 183 190 196 199 199 205 204 207 211 202 197 196 193 194 196 196 194 198 201 200 154 199
229 349 272 203 154 102 216 153 267 265 237 228 228 230 224 218 209 206 200 198 197 188 184 189 189 192 193 191 189 192 207 209 194 177 201 204 209 202 195 196 193 200 195 202 196 183 199 203 163
263 323 2 11 64 257 206 173 253 218 218 234 224 221 222 218 215 214 196 193 194 191 188 187 189 199 191 190 194 195 203 196 187 198 204 208 204 202 202 199 197 204 195 195 202 198 201 202 205
183 171 59 121 189 241 242 200 245 240 252 228 230 235 227 224 221 209 189 186 192 180 182 184 189 200 194 194 198 201 203 199 202 197 202 196 199 203 205 197 201 200 198 199 198 197 204 199 196
177 162 176 160 200 232 282 228 251 226 238 251 224 212 184 175 208 211 207 194 189 190 189 189 191 202 196 198 203 205 202 202 208 208 204 207 206 207 206 202 204 201 190 196 198 203 205 194 205
161 190 202 109 57 64 228 290 300 262 253 244 228 198 192 202 204 213 220 202 196 194 195 191 193 206 198 204 208 207 205 208 210 210 205 203 205 205 202 198 203 194 194 196 195 204 199 191 190
181 144 186 356 212 247 272 263 243 279 243 233 208 215 223 230 236 227 206 204 206 195 177 171 190 201 196 190 199 207 209 210 212 189 199 205 200 190 192 196 195 191 198 197 194 202 184 185 188
162 180 202 167 170 195 235 254 225 246 237 208 202 223 227 238 232 234 212 197 166 147 167 183 188 199 199 198 200 205 208 199 194 203 199 188 176 189 198 193 194 197 200 198 202 203 183 195 181
200 200 192 181 221 227 156 269 261 264 231 172 170 173 156 173 200 253 182 159 164 160 156 197 198 206 214 211 207 215 204 192 189 191 187 178 189 179 168 170 186 188 191 196 202 197 189 186 180